Retour au catalogue

STARLINK-5428

ActifCommunicationsVLEO
NORAD 54800·PAYLOAD·🇺🇸 United States

Lancé Dec 17, 2022 depuis Cape Canaveral Space Force Station

Loading…

Prochains Passages (prochaines 24 heures)

TLE

FraisSource: CelesTrak SupGP

Époque: Sep 15, 2026, 01:32 UTC

1 54800C 22175AU  26258.06437500 -.00012307  00000+0 -39573-3 0  2584
2 54800  53.1576 257.1227 0001308  94.3124  31.4860 15.31710513    17

Suivez STARLINK-5428 en temps réel avec AllMySat

Download on the App Store